THURAYA-2

Last updated on Thu Nov 06 2025 00:02:45 GMT+0000 (Coordinated Universal Time)

1 27825U 03026A 25308.81919660 .00000136 00000+0 00000+0 0 9991 2 27825 8.4861 32.8362 0002092 235.4959 114.9182 1.00274008 82094
UTC large
Height (km)
Speed (km/s)
/
Latitude / Longitude
Inclination (degrees)
Orbital Period (minutes)
Azimuth
Elevation
Range (km)
Doppler Factor

Next 0 passes for location: London (51.5072 / 0.1276)

Sorry there are no passes over London.